Simultaneous Nadir Overpasses (SNOs) Predictions

Prediction of SNOs between LANDSAT-8 and NOAA-19 Satellite Orbit:

Table of predicted SNOs for the next 14.0 days since TLE Epoch: 10/13/2018
Index Date (LANDSAT-8) Time (LANDSAT-8) Lat,Lon (LANDSAT-8) SZA (LANDSAT-8 ) Date (NOAA-19) Time (NOAA-19) Lat,Lon (NOAA-19) SZA (NOAA-19 ) Distance(km) Time Diff (sec)
1 10/13/2018 14:39:07 78.07, -23.92 86.57 10/13/2018 14:38:36 78.06, -23.98 86.54 1.95 31
2 10/13/2018 15:28:35 -78.04, 143.58 93.46 10/13/2018 15:29:40 -78.00, 143.56 93.48 4.05 65
3 10/15/2018 20:12:53 -78.06, 72.59 92.62 10/15/2018 20:12:13 -78.07, 72.61 92.61 1.62 40
4 10/15/2018 21:02:19 78.05,-119.82 87.39 10/15/2018 21:03:08 78.05,-119.99 87.39 4.00 49
5 10/18/2018 01:46:37 78.06, 169.18 88.22 10/18/2018 01:45:40 78.08, 169.26 88.23 2.95 57
6 10/18/2018 02:36:05 -78.03, -23.31 91.81 10/18/2018 02:36:44 -78.03, -23.19 91.80 2.74 39
7 10/20/2018 07:20:22 -78.09, -94.11 90.94 10/20/2018 07:19:17 -78.10, -94.18 90.95 2.07 65
8 10/20/2018 08:09:49 78.04, 73.27 89.01 10/20/2018 08:10:11 78.04, 73.46 89.03 4.46 22
9 10/22/2018 12:53:58 78.44, 4.15 90.31 10/22/2018 12:52:54 78.48, 0.19 90.07 88.31 64
10 10/22/2018 13:43:34 -78.07, 169.98 90.16 10/22/2018 13:43:48 -78.07, 169.97 90.16 0.12 14
11 10/24/2018 19:17:18 78.06, -93.47 90.62 10/24/2018 19:17:15 78.07, -93.33 90.64 3.40 3
12 10/27/2018 00:51:03 -78.09, 3.23 88.58 10/27/2018 00:50:51 -78.08, 3.28 88.59 1.80 12




NCC Satellite Simultaneous Nadir Overpasses (SNOs) Prediction Service
